Date String (YYYY-MM-DD hh:mm:ss) UTC,Instrument flags,absolute air pressure of the measurement (hPa),sample flow rate (lpm),inlet stack bypass flow (lpm),air temperature of the measurement (°C),ambient temperature measured by the external sensor (°C),aerosol sample conditioner tube jacket temperature (°C),OPC LED temperature (°C),internal box temperature (°C),relative humidity of the measurement (%),span deviation,mass concentration of particles derived from Lorenz-Mie calculation of OPC scattering (μg/m³),mass concentration of particles derived from Lorenz-Mie calculation of OPC scattering (μg/m³),mass concentration of particles derived from Lorenz-Mie calculation of OPC scattering (μg/m³)
DateTimeUTC,F1_M11,P_M11,Q1_M11,Q2_M11,T1_M11,T2_M11,T3_M11,T4_M11,T5_M11,U1_M11,ZSPAN_M11,X2_M11,X0_M11,X1_M11
2024-04-13 21:00:00,SystemResetWarning,0826.6,4.99,000.00,024.5,022.2,000.0,033.2,025.6,013.0,0000.0,0004.39,0015.05,0003.02
2024-04-13 21:01:00,SystemResetWarning,0826.6,5.00,000.00,024.5,022.6,000.0,033.1,025.9,012.4,0000.0,0004.39,0015.28,0003.01
2024-04-13 21:02:00,SystemResetWarning,0826.6,5.00,000.00,024.6,023.0,000.0,033.1,026.2,012.4,0000.0,0004.46,0015.74,0003.01
2024-04-13 21:03:00,SystemResetWarning,0826.6,4.99,000.00,024.7,023.3,000.0,033.0,026.4,013.0,0000.0,0004.47,0015.86,0002.99
2024-04-13 21:04:00,SystemResetWarning,0826.6,5.00,000.00,024.7,023.6,000.0,033.0,026.5,011.7,0000.0,0004.49,0016.32,0003.00
2024-04-13 21:05:00,SystemResetWarning,0826.6,5.00,000.00,024.8,023.8,000.0,033.0,026.7,011.8,0000.0,0004.46,0016.82,0002.99
2024-04-13 21:06:00,SystemResetWarning,0826.6,5.00,000.00,024.9,024.1,000.0,033.1,026.8,011.9,0000.0,0004.47,0016.99,0002.97
2024-04-13 21:07:00,SystemResetWarning,0826.6,5.01,000.00,025.0,024.3,000.0,033.1,026.9,011.6,0000.0,0004.41,0015.86,0002.98
2024-04-13 21:08:00,SystemResetWarning,0826.6,5.00,000.00,025.1,024.4,000.0,033.1,027.0,011.4,0000.0,0004.38,0016.12,0003.00
2024-04-13 21:09:00,SystemResetWarning,0826.6,4.99,000.00,025.1,024.6,000.0,033.2,027.1,011.4,0000.0,0004.43,0016.49,0003.02
2024-04-13 21:10:00,SystemResetWarning,0826.6,4.99,000.00,025.2,024.7,000.0,033.2,027.2,011.4,0000.0,0004.40,0015.11,0003.02
2024-04-13 21:11:00,SystemResetWarning,0826.6,5.01,000.00,025.3,024.8,000.0,033.3,027.3,010.8,0000.0,0004.40,0015.79,0003.01
2024-04-13 21:12:00,SystemResetWarning,0826.6,5.00,000.00,025.3,024.7,000.0,033.3,027.1,011.0,0000.0,0004.34,0015.20,0002.99
2024-04-13 21:13:00,SystemResetWarning,0826.6,5.00,000.00,025.1,022.9,000.0,033.4,026.0,010.9,0000.0,0004.27,0014.99,0002.99
2024-04-13 21:14:00,SystemResetWarning,0826.6,5.01,000.00,024.7,021.6,000.0,033.4,025.2,011.4,0000.0,0004.25,0016.08,0002.97
2024-04-13 21:15:00,SystemResetWarning,0826.6,5.02,000.00,024.5,021.8,000.0,033.3,025.3,011.3,0000.0,0004.21,0016.55,0002.95
2024-04-13 21:16:00,SystemResetWarning,0826.6,4.98,000.00,024.4,022.2,000.0,033.1,025.6,012.1,0000.0,0004.25,0016.16,0002.96
2024-04-13 21:17:00,SystemResetWarning,0826.6,5.00,000.00,024.5,022.6,000.0,033.1,025.9,010.9,0000.0,0004.24,0014.60,0002.97
2024-04-13 21:18:00,SystemResetWarning,0826.6,5.01,000.00,024.6,023.0,000.0,033.0,026.2,011.1,0000.0,0004.27,0014.69,0002.97
2024-04-13 21:19:00,SystemResetWarning,0826.6,4.99,000.00,024.6,023.3,000.0,033.0,026.3,011.8,0000.0,0004.22,0013.99,0002.94
2024-04-13 21:20:00,SystemResetWarning,0826.6,4.99,000.00,024.7,023.6,000.0,033.0,026.5,012.4,0000.0,0004.17,0012.94,0002.92
2024-04-13 21:21:00,SystemResetWarning,0826.7,4.99,000.00,024.8,023.9,000.0,033.0,026.7,011.9,0000.0,0004.21,0012.97,0002.92
2024-04-13 21:22:00,SystemResetWarning,0826.7,5.00,000.00,024.9,024.1,000.0,033.0,026.8,012.0,0000.0,0004.22,0013.32,0002.92
2024-04-13 21:23:00,SystemResetWarning,0826.7,5.00,000.00,025.0,024.3,000.0,033.1,026.8,011.9,0000.0,0004.25,0013.75,0002.92
2024-04-13 21:24:00,SystemResetWarning,0826.7,5.00,000.00,025.0,024.4,000.0,033.1,027.0,012.7,0000.0,0004.24,0014.02,0002.91
2024-04-13 21:25:00,SystemResetWarning,0826.7,5.00,000.00,025.1,024.6,000.0,033.1,027.1,012.5,0000.0,0004.24,0013.52,0002.92
2024-04-13 21:26:00,SystemResetWarning,0826.7,5.01,000.00,025.2,024.7,000.0,033.2,027.1,011.9,0000.0,0004.23,0012.31,0002.91
2024-04-13 21:27:00,SystemResetWarning,0826.7,4.99,000.00,025.3,024.8,000.0,033.2,027.2,012.2,0000.0,0004.29,0012.13,0002.89
2024-04-13 21:28:00,SystemResetWarning,0826.7,5.00,000.00,025.4,024.9,000.0,033.3,027.3,011.4,0000.0,0004.29,0012.01,0002.86
2024-04-13 21:29:00,SystemResetWarning,0826.6,4.99,000.00,025.3,024.1,000.0,033.4,026.7,011.4,0000.0,0004.29,0012.18,0002.86
2024-04-13 21:30:00,SystemResetWarning,0826.6,5.01,000.00,024.9,022.0,000.0,033.4,025.6,012.3,0000.0,0004.33,0012.62,0002.86
2024-04-13 21:31:00,SystemResetWarning,0826.6,5.02,000.00,024.6,021.7,000.0,033.4,025.3,011.8,0000.0,0004.42,0013.23,0002.87
2024-04-13 21:32:00,SystemResetWarning,0826.6,4.99,000.00,024.5,022.1,000.0,033.2,025.5,012.3,0000.0,0004.40,0013.41,0002.85
2024-04-13 21:33:00,SystemResetWarning,0826.6,4.99,000.00,024.5,022.5,000.0,033.1,025.8,011.8,0000.0,0004.42,0013.18,0002.84
2024-04-13 21:34:00,SystemResetWarning,0826.6,5.01,000.00,024.6,022.9,000.0,033.1,026.1,011.2,0000.0,0004.42,0013.12,0002.85
2024-04-13 21:35:00,SystemResetWarning,0826.6,5.00,000.00,024.6,023.2,000.0,033.0,026.4,010.9,0000.0,0004.43,0013.55,0002.84
2024-04-13 21:36:00,SystemResetWarning,0826.6,4.99,000.00,024.7,023.5,000.0,033.0,026.5,010.8,0000.0,0004.48,0013.53,0002.83
2024-04-13 21:37:00,SystemResetWarning,0826.6,4.99,000.00,024.8,023.9,000.0,033.0,026.7,011.4,0000.0,0004.49,0014.19,0002.85
2024-04-13 21:38:00,SystemResetWarning,0826.6,5.00,000.00,024.9,024.1,000.0,033.1,026.8,011.3,0000.0,0004.42,0015.32,0002.86
2024-04-13 21:39:00,SystemResetWarning,0826.6,5.00,000.00,025.0,024.3,000.0,033.1,026.9,010.9,0000.0,0004.40,0016.08,0002.86
2024-04-13 21:40:00,SystemResetWarning,0826.6,4.99,000.00,025.1,024.5,000.0,033.1,027.0,011.0,0000.0,0004.42,0016.70,0002.85
2024-04-13 21:41:00,SystemResetWarning,0826.6,4.99,000.00,025.1,024.7,000.0,033.2,027.1,011.5,0000.0,0004.44,0016.43,0002.85
2024-04-13 21:42:00,SystemResetWarning,0826.6,5.00,000.00,025.2,024.8,000.0,033.2,027.2,011.0,0000.0,0004.37,0016.21,0002.85
2024-04-13 21:43:00,SystemResetWarning,0826.6,4.99,000.00,025.3,024.6,000.0,033.3,027.0,011.0,0000.0,0004.42,0016.20,0002.87
2024-04-13 21:44:00,SystemResetWarning,0826.6,5.00,000.00,025.0,022.7,000.0,033.3,025.9,011.5,0000.0,0004.40,0015.82,0002.87
2024-04-13 21:45:00,SystemResetWarning,0826.5,5.00,000.00,024.6,021.5,000.0,033.3,025.1,011.2,0000.0,0004.34,0015.36,0002.83
2024-04-13 21:46:00,SystemResetWarning,0826.6,5.02,000.00,024.5,021.9,000.0,033.3,025.3,011.9,0000.0,0004.37,0014.92,0002.84
2024-04-13 21:47:00,SystemResetWarning,0826.7,5.00,000.00,024.4,022.3,000.0,033.1,025.6,011.5,0000.0,0004.35,0015.00,0002.84
2024-04-13 21:48:00,SystemResetWarning,0826.6,5.00,000.00,024.5,022.7,000.0,033.0,025.9,010.9,0000.0,0004.39,0015.36,0002.83
2024-04-13 21:49:00,SystemResetWarning,0826.6,5.01,000.00,024.5,023.0,000.0,033.0,026.2,011.2,0000.0,0004.35,0013.79,0002.83
2024-04-13 21:50:00,SystemResetWarning,0826.6,4.99,000.00,024.6,023.4,000.0,033.0,026.4,011.0,0000.0,0004.36,0013.86,0002.83
2024-04-13 21:51:00,SystemResetWarning,0826.6,5.00,000.00,024.7,023.6,000.0,033.0,026.5,011.2,0000.0,0004.28,0014.26,0002.81
2024-04-13 21:52:00,SystemResetWarning,0826.7,5.01,000.00,024.8,024.0,000.0,033.0,026.7,011.5,0000.0,0004.22,0014.76,0002.79
2024-04-13 21:53:00,SystemResetWarning,0826.8,5.00,000.00,024.9,024.2,000.0,033.0,026.8,011.0,0000.0,0004.20,0014.26,0002.78
2024-04-13 21:54:00,SystemResetWarning,0826.8,5.00,000.00,025.0,024.4,000.0,033.0,026.9,011.2,0000.0,0004.16,0014.13,0002.77
2024-04-13 21:55:00,SystemResetWarning,0826.8,5.00,000.00,025.1,024.6,000.0,033.1,027.0,011.0,0000.0,0004.12,0014.34,0002.77
2024-04-13 21:56:00,SystemResetWarning,0826.7,5.00,000.00,025.1,024.8,000.0,033.1,027.1,011.3,0000.0,0004.13,0014.93,0002.75
2024-04-13 21:57:00,SystemResetWarning,0826.8,5.00,000.00,025.2,024.9,000.0,033.2,027.2,011.6,0000.0,0004.10,0014.55,0002.73
2024-04-13 21:58:00,SystemResetWarning,0826.7,4.98,000.00,025.1,023.6,000.0,033.3,026.4,011.8,0000.0,0004.08,0014.59,0002.68
2024-04-13 21:59:00,SystemResetWarning,0826.5,5.00,000.00,024.7,021.8,000.0,033.3,025.3,012.4,0000.0,0004.13,0014.67,0002.65
